Location: Alafon
(8.4500°N, 4.2333°E)
Time: 23:39:19
(UTC+00:00)

Explorer 7 - Pass Details

Date: 01 August 2021
Orbit: 484 x 676 km, 50.3° (Epoch: 18 September)

Event Time Altitude Azimuth Distance (km) Brightness Sun altitude
Rises 13:43:37 0° 303° (WNW) 2,917 10.9 60.7°
Reaches altitude 10° 13:46:11 10° 291° (WNW) 2,037 10.4 60.1°
Maximum altitude 13:50:09 27° 234° (SW) 1,264 9.3 59.2°
Drops below altitude 10° 13:54:14 10° 176° (S) 2,094 9.8 58.2°
Sets 13:56:55 0° 164° (SSE) 3,015 10.4 57.6°
